Location: Killam
(52.7910°N, 111.8608°W)
Time: 12:51:06
(UTC+00:00)

METEOR M2 - Pass Details

Date: 16 March 2026
Orbit: 817 x 824 km, 98.5° (Epoch: 14 April)

Event Time Altitude Azimuth Distance (km) Brightness Sun altitude
Rises 12:43:51 0° 12° (NNE) 3,375 ? -9.1°
Reaches altitude 10° 12:46:15 10° 7° (N) 2,438 ? -8.8°
Maximum altitude 12:51:27 50° 294° (WNW) 1,044 ? -8.0°
Drops below altitude 10° 12:56:36 10° 220° (SW) 2,422 ? -7.2°
Sets 12:59:00 0° 215° (SW) 3,350 ? -6.9°
